This demonstration page uses our WeatherBlox Daily Observations layout. Learn more.

Left ArrowRight Arrow

39.12711, -84.51439

Hourly Observations for May 23, 2016

Temp ( °F °C ) Dew Point ( °F °C ) Humidity (%) Winds ( mph kmh ) Pressure ( in mb ) Visibility ( mi km ) Precip ( " mm )
12:53 am 00:53 Clear 52 11.1 51 10.6 97 97 Calm 30.01 1016 10 16 0.00 0.00
1:53 am 01:53 Clear 50 10 49 9.4 96 96 Calm 30.01 1016 10 16 0.00 0.00
2:53 am 02:53 Clear 49 9.4 48 8.9 97 97 Calm 30.00 1016 9 14 0.00 0.00
3:50 am 03:50 Clear with Mist and Fog 46 8 46 8 100 100 Calm 30.00 1016 2 3 0.00 0.00
3:53 am 03:53 Clear with Mist and Fog 47 8.3 47 8.3 100 100 Calm 30.01 1016 3 4 0.00 0.00
4:08 am 04:08 Clear with Mist and Fog 46 8 46 8 100 100 Calm 30.03 1017 3 5 0.00 0.00
4:13 am 04:13 Clear with Mist and Fog 46 7.8 46 7.8 100 100 Calm 30.00 1016 2 3 0.00 0.00
4:26 am 04:26 Clear with Mist and Fog 46 8 46 8 100 100 Calm 30.03 1017 4 6 0.00 0.00
4:53 am 04:53 Clear with Mist and Fog 47 8.3 47 8.3 100 100 Calm 30.01 1016 3 5 0.00 0.00
5:18 am 05:18 Clear with Mist and Fog 46 8 46 8 100 100 Calm 30.03 1017 1 1 0.00 0.00
5:28 am 05:28 Clear with Mist and Fog 46 8 46 8 100 100 Calm 30.03 1017 2 3 0.00 0.00
5:35 am 05:35 Clear with Mist and Fog 46 7.8 46 7.8 100 100 Calm 30.03 1017 5 8 0.00 0.00
5:53 am 05:53 Clear with Mist and Fog 46 7.8 46 7.8 100 100 ENE 3 6 30.03 1017 3 4 0.00 0.00
6:12 am 06:12 Clear with Mist and Fog 46 7.8 46 7.8 100 100 NNE 3 6 30.03 1017 6 10 0.00 0.00
6:37 am 06:37 Sunny with Mist and Fog 44 6.7 44 6.7 100 100 Calm 30.06 1018 1 2 0.00 0.00
6:43 am 06:43 Sunny with Mist and Fog 45 7.2 45 7.2 100 100 Calm 30.06 1018 3 5 0.00 0.00
6:53 am 06:53 Sunny with Mist and Fog 46 7.8 46 7.8 100 100 Calm 30.06 1018 5 8 0.00 0.00
7:53 am 07:53 Sunny 51 10.6 50 10 96 96 NNE 3 6 30.09 1019 7 11 0.00 0.00
8:53 am 08:53 Sunny 57 13.9 50 10 78 78 N 3 6 30.10 1019 10 16 0.00 0.00
9:53 am 09:53 Sunny 62 16.7 51 10.6 67 67 Calm 30.10 1019 10 16 0.00 0.00
10:53 am 10:53 Sunny 67 19.4 52 11.1 59 59 E 3 6 30.08 1019 10 16 0.00 0.00
11:53 am 11:53 Sunny 70 21.1 50 10 49 49 VRB 3 6 30.07 1018 10 16 0.00 0.00
12:53 pm 12:53 Sunny 72 22.2 49 9.4 44 44 N 3 6 30.06 1018 10 16 0.00 0.00
1:53 pm 13:53 Sunny 74 23.3 51 10.6 45 45 N 7 11 30.04 1017 10 16 0.00 0.00
2:53 pm 14:53 Sunny 75 23.9 51 10.6 43 43 N 5 7 30.03 1017 10 16 0.00 0.00
3:53 pm 15:53 Mostly Sunny 76 24.4 50 10 40 40 NE 6 9 30.01 1016 10 16 0.00 0.00
4:53 pm 16:53 Mostly Sunny 76 24.4 50 10 40 40 E 6 9 29.99 1016 10 16 0.00 0.00
5:53 pm 17:53 Mostly Sunny 75 23.9 47 8.3 37 37 SSE 3 6 29.99 1016 10 16 0.00 0.00
6:53 pm 18:53 Sunny 74 23.3 51 10.6 45 45 S 7 11 29.99 1016 10 16 0.00 0.00
7:53 pm 19:53 Mostly Sunny 71 21.7 52 11.1 51 51 SSE 6 9 30.00 1016 10 16 0.00 0.00
8:53 pm 20:53 Clear 66 18.9 56 13.3 70 70 Calm 30.01 1016 10 16 0.00 0.00
9:53 pm 21:53 Clear 61 16.1 54 12.2 78 78 Calm 30.02 1017 10 16 0.00 0.00
10:53 pm 22:53 Clear 58 14.4 54 12.2 87 87 Calm 30.04 1017 10 16 0.00 0.00
11:53 pm 23:53 Clear 56 13.3 54 12.2 93 93 Calm 30.04 1017 10 16 0.00 0.00

Powered by AerisWeather